Back to catalog

CZ-6A DEB

AliveSSO
NORAD 54547·DEBRIS·🇨🇳 China

Launched Nov 11, 2022 from Taiyuan Satellite Launch Center

Loading…

Next Passes (next 24 hours)

TLE

FreshSource: Space-Track

Epoch: Sep 14, 2026, 12:16 UTC

1 54547U 22151KX  26257.51175386  .00004030  00000-0  15451-2 0  9999
2 54547  98.8067 270.0983 0090658  84.7445 276.4074 14.28837991198374

Track CZ-6A DEB in real time with AllMySat

Download on the App Store